PWSweather.com
Personal Weather Stations
Station Observations
PALIDDU
BagheriaIT 90011

BagheriaIT 90011

Lat: 38.0771377, Lon: 13.5044022

Elevation: 289

Station Type: WS-1080

http://meteo40.altervista.org

Latest ConditionsUpdated 1:00:04 PM GMT+01:01 Friday, Jun 23, 2017
Currently Today's Max Today's Min Today's Average
Temperature 83.5°F28.6°C 84.7°F29.3°C 74.7°F23.7°C 78.7°F25.9°C
Dew Point 64.1°F17.8°C 67.3°F19.6°C 52.5°F11.4°C 59.9°F15.5°C
Winds 7.6 mph E12.2 kmh E 7.6 mph E12.2 kmh E - 3.2 mph 5.1 kmh
Wind Gusts 9.8 mph15.8 kmh 10.7 mph17.2 kmh - -
Humidity 52% 71% 43% 53%
Pressure 30.13 in1020.3 mb 30.15 in1021.0 mb 30.09 in1019.0 mb -
Hour Temp Dew Point Humidity Winds Wind Gusts Pressure Precip Precip Rate Daily Precip Total
01:00 PM 83.5°F28.6°C 64.1°F17.8°C 52% 7.6 mph E12.2 kmh E 9.8 mph15.8 kmh 30.13 in1020.3 mb 0.00 in0.0 mm 0.00 in0.0 mm 0.00 in0.0 mm
12:45 PM 83.8°F28.8°C 64.4°F18.0°C 52% 6.9 mph E11.1 kmh E 9.2 mph14.8 kmh 30.14 in1020.7 mb 0.00 in0.0 mm 0.00 in0.0 mm 0.00 in0.0 mm
12:30 PM 84.4°F29.1°C 62.6°F17.0°C 48% 7.1 mph E11.4 kmh E 9.8 mph15.8 kmh 30.15 in1021.0 mb 0.00 in0.0 mm 0.00 in0.0 mm 0.00 in0.0 mm
12:15 PM 84.6°F29.2°C 60.9°F16.1°C 45% 7.6 mph E12.2 kmh E 10.7 mph17.2 kmh 30.14 in1020.7 mb 0.00 in0.0 mm 0.00 in0.0 mm 0.00 in0.0 mm
12:00 PM 84.7°F29.3°C 59.8°F15.4°C 43% 7.2 mph E11.6 kmh E 9.2 mph14.8 kmh 30.15 in1021.0 mb 0.00 in0.0 mm 0.00 in0.0 mm 0.00 in0.0 mm
11:45 AM 84.7°F29.3°C 61.1°F16.2°C 45% 6.7 mph E10.8 kmh E 9.8 mph15.8 kmh 30.15 in1021.0 mb 0.00 in0.0 mm 0.00 in0.0 mm 0.00 in0.0 mm
11:30 AM 84.6°F29.2°C 60.3°F15.7°C 44% 6.5 mph E10.5 kmh E 8.3 mph13.4 kmh 30.15 in1021.0 mb 0.00 in0.0 mm 0.00 in0.0 mm 0.00 in0.0 mm
11:15 AM 84.2°F29.0°C 60.6°F15.9°C 45% 6.9 mph E11.1 kmh E 9.8 mph15.8 kmh 30.14 in1020.7 mb 0.00 in0.0 mm 0.00 in0.0 mm 0.00 in0.0 mm
11:00 AM 84.7°F29.3°C 60.5°F15.8°C 44% 5.3 mph E8.5 kmh E 8.3 mph13.4 kmh 30.15 in1021.0 mb 0.00 in0.0 mm 0.00 in0.0 mm 0.00 in0.0 mm
10:45 AM 83.3°F28.5°C 60.4°F15.8°C 46% 6.1 mph E9.8 kmh E 7.6 mph12.2 kmh 30.15 in1021.0 mb 0.00 in0.0 mm 0.00 in0.0 mm 0.00 in0.0 mm
10:30 AM 84.2°F29.0°C 60.0°F15.6°C 44% 6.0 mph E9.7 kmh E 7.6 mph12.2 kmh 30.14 in1020.7 mb 0.00 in0.0 mm 0.00 in0.0 mm 0.00 in0.0 mm
10:15 AM 83.8°F28.8°C 60.3°F15.7°C 45% 5.8 mph E9.3 kmh E 8.3 mph13.4 kmh 30.15 in1021.0 mb 0.00 in0.0 mm 0.00 in0.0 mm 0.00 in0.0 mm
10:00 AM 83.7°F28.7°C 61.3°F16.3°C 47% 5.1 mph E8.2 kmh E 7.6 mph12.2 kmh 30.14 in1020.7 mb 0.00 in0.0 mm 0.00 in0.0 mm 0.00 in0.0 mm
09:45 AM 83.1°F28.4°C 59.6°F15.3°C 45% 4.5 mph E7.2 kmh E 6.9 mph11.1 kmh 30.14 in1020.7 mb 0.00 in0.0 mm 0.00 in0.0 mm 0.00 in0.0 mm
09:30 AM 82.8°F28.2°C 61.7°F16.5°C 49% 4.0 mph E6.4 kmh E 6.0 mph9.7 kmh 30.14 in1020.7 mb 0.00 in0.0 mm 0.00 in0.0 mm 0.00 in0.0 mm
09:15 AM 81.5°F27.5°C 61.7°F16.5°C 51% 5.1 mph E8.2 kmh E 6.9 mph11.1 kmh 30.13 in1020.3 mb 0.00 in0.0 mm 0.00 in0.0 mm 0.00 in0.0 mm
09:00 AM 81.9°F27.7°C 63.6°F17.6°C 54% 4.4 mph E7.1 kmh E 6.9 mph11.1 kmh 30.13 in1020.3 mb 0.00 in0.0 mm 0.00 in0.0 mm 0.00 in0.0 mm
08:45 AM 81.0°F27.2°C 63.3°F17.4°C 55% 3.6 mph E5.8 kmh E 5.4 mph8.7 kmh 30.14 in1020.7 mb 0.00 in0.0 mm 0.00 in0.0 mm 0.00 in0.0 mm
08:30 AM 80.6°F27.0°C 65.0°F18.3°C 59% 3.2 mph E5.1 kmh E 4.5 mph7.2 kmh 30.12 in1020.0 mb 0.00 in0.0 mm 0.00 in0.0 mm 0.00 in0.0 mm
08:15 AM 80.6°F27.0°C 66.4°F19.1°C 62% 3.6 mph E5.8 kmh E 6.0 mph9.7 kmh 30.13 in1020.3 mb 0.00 in0.0 mm 0.00 in0.0 mm 0.00 in0.0 mm
08:00 AM 79.9°F26.6°C 65.7°F18.7°C 62% 3.1 mph E5.0 kmh E 5.4 mph8.7 kmh 30.13 in1020.3 mb 0.00 in0.0 mm 0.00 in0.0 mm 0.00 in0.0 mm
07:45 AM 79.5°F26.4°C 65.4°F18.6°C 62% 2.6 mph E4.2 kmh E 5.4 mph8.7 kmh 30.12 in1020.0 mb 0.00 in0.0 mm 0.00 in0.0 mm 0.00 in0.0 mm
07:30 AM 78.3°F25.7°C 66.0°F18.9°C 66% 2.6 mph E4.2 kmh E 4.5 mph7.2 kmh 30.11 in1019.6 mb 0.00 in0.0 mm 0.00 in0.0 mm 0.00 in0.0 mm
07:15 AM 77.7°F25.4°C 66.8°F19.3°C 69% 1.8 mph SE2.9 kmh SE 3.8 mph6.1 kmh 30.11 in1019.6 mb 0.00 in0.0 mm 0.00 in0.0 mm 0.00 in0.0 mm
07:00 AM 77.4°F25.2°C 67.3°F19.6°C 71% 3.0 mph S4.8 kmh S 3.8 mph6.1 kmh 30.11 in1019.6 mb 0.00 in0.0 mm 0.00 in0.0 mm 0.00 in0.0 mm
06:45 AM 77.2°F25.1°C 66.3°F19.1°C 69% 2.6 mph SSW4.2 kmh SSW 3.8 mph6.1 kmh 30.11 in1019.6 mb 0.00 in0.0 mm 0.00 in0.0 mm 0.00 in0.0 mm
06:30 AM 76.6°F24.8°C 64.5°F18.1°C 66% 2.1 mph SSW3.4 kmh SSW 3.8 mph6.1 kmh 30.11 in1019.6 mb 0.00 in0.0 mm 0.00 in0.0 mm 0.00 in0.0 mm
06:15 AM 76.3°F24.6°C 62.8°F17.1°C 63% 1.7 mph SW2.7 kmh SW 2.2 mph3.5 kmh 30.11 in1019.6 mb 0.00 in0.0 mm 0.00 in0.0 mm 0.00 in0.0 mm
06:00 AM 75.7°F24.3°C 57.4°F14.1°C 53% 1.0 mph SW1.6 kmh SW 1.6 mph2.6 kmh 30.11 in1019.6 mb 0.00 in0.0 mm 0.00 in0.0 mm 0.00 in0.0 mm
05:45 AM 75.2°F24.0°C 53.0°F11.7°C 46% 1.5 mph SW2.4 kmh SW 3.1 mph5.0 kmh 30.11 in1019.6 mb 0.00 in0.0 mm 0.00 in0.0 mm 0.00 in0.0 mm
05:30 AM 75.0°F23.9°C 52.9°F11.6°C 46% 1.4 mph SW2.3 kmh SW 2.2 mph3.5 kmh 30.10 in1019.3 mb 0.00 in0.0 mm 0.00 in0.0 mm 0.00 in0.0 mm
05:15 AM 75.2°F24.0°C 53.0°F11.7°C 46% 0.9 mph SW1.4 kmh SW 2.2 mph3.5 kmh 30.10 in1019.3 mb 0.00 in0.0 mm 0.00 in0.0 mm 0.00 in0.0 mm
05:00 AM 75.0°F23.9°C 52.9°F11.6°C 46% 0.9 mph SW1.4 kmh SW 1.6 mph2.6 kmh 30.10 in1019.3 mb 0.00 in0.0 mm 0.00 in0.0 mm 0.00 in0.0 mm
04:45 AM 74.7°F23.7°C 52.5°F11.4°C 46% 0.8 mph SW1.3 kmh SW 1.6 mph2.6 kmh 30.10 in1019.3 mb 0.00 in0.0 mm 0.00 in0.0 mm 0.00 in0.0 mm
04:30 AM 75.0°F23.9°C 53.5°F11.9°C 47% 1.4 mph WSW2.3 kmh WSW 3.1 mph5.0 kmh 30.09 in1019.0 mb 0.00 in0.0 mm 0.00 in0.0 mm 0.00 in0.0 mm
04:15 AM 75.4°F24.1°C 53.8°F12.1°C 47% 0.6 mph WSW1.0 kmh WSW 1.6 mph2.6 kmh 30.09 in1019.0 mb 0.00 in0.0 mm 0.00 in0.0 mm 0.00 in0.0 mm
04:00 AM 75.4°F24.1°C 54.4°F12.4°C 48% 0.4 mph WSW0.6 kmh WSW 1.6 mph2.6 kmh 30.09 in1019.0 mb 0.00 in0.0 mm 0.00 in0.0 mm 0.00 in0.0 mm
03:45 AM 75.0°F23.9°C 54.6°F12.6°C 49% 1.2 mph SW1.9 kmh SW 2.2 mph3.5 kmh 30.09 in1019.0 mb 0.00 in0.0 mm 0.00 in0.0 mm 0.00 in0.0 mm
03:30 AM 75.0°F23.9°C 55.2°F12.9°C 50% 0.9 mph SW1.4 kmh SW 1.6 mph2.6 kmh 30.09 in1019.0 mb 0.00 in0.0 mm 0.00 in0.0 mm 0.00 in0.0 mm
03:15 AM 75.0°F23.9°C 55.2°F12.9°C 50% 1.5 mph SW2.4 kmh SW 2.2 mph3.5 kmh 30.09 in1019.0 mb 0.00 in0.0 mm 0.00 in0.0 mm 0.00 in0.0 mm
03:00 AM 75.2°F24.0°C 54.8°F12.7°C 49% 1.3 mph S2.1 kmh S 2.2 mph3.5 kmh 30.09 in1019.0 mb 0.00 in0.0 mm 0.00 in0.0 mm 0.00 in0.0 mm
02:45 AM 75.2°F24.0°C 54.8°F12.7°C 49% 1.3 mph S2.1 kmh S 2.2 mph3.5 kmh 30.09 in1019.0 mb 0.00 in0.0 mm 0.00 in0.0 mm 0.00 in0.0 mm
02:30 AM 75.4°F24.1°C 56.6°F13.7°C 52% 0.9 mph S1.4 kmh S 2.2 mph3.5 kmh 30.09 in1019.0 mb 0.00 in0.0 mm 0.00 in0.0 mm 0.00 in0.0 mm
02:15 AM 75.4°F24.1°C 57.1°F13.9°C 53% 2.4 mph S3.9 kmh S 3.1 mph5.0 kmh 30.09 in1019.0 mb 0.00 in0.0 mm 0.00 in0.0 mm 0.00 in0.0 mm
02:00 AM 75.4°F24.1°C 57.6°F14.2°C 54% 1.4 mph S2.3 kmh S 3.1 mph5.0 kmh 30.09 in1019.0 mb 0.00 in0.0 mm 0.00 in0.0 mm 0.00 in0.0 mm
01:45 AM 75.4°F24.1°C 58.6°F14.8°C 56% 2.2 mph S3.5 kmh S 3.8 mph6.1 kmh 30.09 in1019.0 mb 0.00 in0.0 mm 0.00 in0.0 mm 0.00 in0.0 mm
01:30 AM 75.9°F24.4°C 59.6°F15.3°C 57% 2.5 mph S4.0 kmh S 3.8 mph6.1 kmh 30.09 in1019.0 mb 0.00 in0.0 mm 0.00 in0.0 mm 0.00 in0.0 mm
01:15 AM 75.9°F24.4°C 59.6°F15.3°C 57% 1.8 mph S2.9 kmh S 3.1 mph5.0 kmh 30.10 in1019.3 mb 0.00 in0.0 mm 0.00 in0.0 mm 0.00 in0.0 mm
01:00 AM 75.7°F24.3°C 59.9°F15.5°C 58% 2.2 mph S3.5 kmh S 3.8 mph6.1 kmh 30.09 in1019.0 mb 0.00 in0.0 mm 0.00 in0.0 mm 0.00 in0.0 mm
12:45 AM 75.9°F24.4°C 60.6°F15.9°C 59% 1.4 mph S2.3 kmh S 2.2 mph3.5 kmh 30.10 in1019.3 mb 0.00 in0.0 mm 0.00 in0.0 mm 0.00 in0.0 mm
12:30 AM 75.7°F24.3°C 60.9°F16.1°C 60% 3.1 mph S5.0 kmh S 4.5 mph7.2 kmh 30.10 in1019.3 mb 0.00 in0.0 mm 0.00 in0.0 mm 0.00 in0.0 mm
12:15 AM 75.7°F24.3°C 61.8°F16.6°C 62% 2.0 mph S3.2 kmh S 3.8 mph6.1 kmh 30.11 in1019.6 mb 0.00 in0.0 mm 0.00 in0.0 mm 0.00 in0.0 mm
12:00 AM 75.9°F24.4°C 62.5°F16.9°C 63% 3.3 mph S5.3 kmh S 4.5 mph7.2 kmh 30.11 in1019.6 mb 0.00 in0.0 mm 0.00 in0.0 mm 0.00 in0.0 mm